Location: Unspecified
(35.7250°N, 0.0000°E)
Time: 15:46:50
(UTC+00:00)

Vanguard 2 - Pass Details

Date: 17 June 2019
Orbit: 553 x 2938 km, 32.9° (Epoch: 21 July)

Event Time Altitude Azimuth Distance (km) Brightness Sun altitude
Rises 14:52:33 0° 280° (W) 5,261 12.4 51.0°
Reaches altitude 10° 14:55:43 10° 275° (W) 4,545 12.3 50.4°
Maximum altitude 15:08:34 50° 206° (SSW) 3,199 11.6 47.8°
Drops below altitude 10° 15:25:14 10° 139° (SE) 5,757 11.8 44.4°
Sets 15:29:54 0° 134° (SE) 6,714 12.0 43.5°
